Location: Bullenkuhlen
(53.7689°N, 9.7495°E)
Time: 18:56:08
(UTC+00:00)

Cosmos 2322 Rocket - Pass Details

Date: 09 April 2020
Orbit: 834 x 849 km, 71.0° (Epoch: 24 May)

Event Time Altitude Azimuth Distance (km) Brightness Sun altitude
Rises 19:49:16 0° 322° (NW) 3,412 6.9 -13.8°
Reaches altitude 10° 19:52:28 10° 340° (NNW) 2,472 5.5 -14.2°
Maximum altitude 19:56:28 19° 25° (NNE) 1,899 4.2 -14.6°
Drops below altitude 10° 20:00:26 10° 70° (ENE) 2,459 4.3 -15.1°
Enters shadow 20:01:19 - 76° (ENE) 2,695 4.5 -15.2°
